User: anonymous   Login
Location: *
(34.8620°S, 39.3380°E)
Time: 03:18:55
(UTC+00:00)
Language:

SJ 16-02 - Orbit

View from above orbital plane
View from above orbital plane
View from above satellite
View from above satellite

Ground track
Ground track

The orbit data is extracted from the following two-line orbital elements,

1 41634U 16043A   21293.81718509  .00000293  00000-0  36749-4 0  9995
2 41634  75.0026 235.7420 0008539 202.0448 158.0373 14.85859124288066
Epoch (UTC): 20 October 2021 19:36:44
Eccentricity: 0.0008539
inclination: 75.0026°
perigee height: 605 km
apogee height: 617 km
right ascension of ascending node: 235.7420°
argument of perigee: 202.0448°
revolutions per day: 14.85859124
mean anomaly at epoch: 158.0373°
orbit number at epoch: 28806

The dashed part of the orbit path shows where the satellite is in the earth's shadow,  

DLR